When you browse on this site, cookies collect data to enhance your experience and personalize the content and advertising you see.
Visit our Privacy Policy to learn more. By continuing to use the site, you agree to this use of cookies and data.
  • In Austria
  • List of Countries
  • For 7 days
  • Water Temperature
  • Weather Map
  • News
  • Weather Widgets
  • user-avatar
    Login

    Hourly Weather Sankt Polten

    Today, 26 February, Wednesday

    Time Temperature Precipitation Wind Pressure Humidity
    00:00 +7°C° 0.3 mm 2 mps 724 mmHg 85%
    01:00 +7°C° 0 mm 2 mps 723 mmHg 85%
    02:00 +7°C° 0.2 mm 3 mps 723 mmHg 83%
    03:00 +5°C° 0.2 mm 3 mps 722 mmHg 81%
    04:00 +5°C° 0.2 mm 4 mps 721 mmHg 79%
    05:00 +5°C° 0.1 mm 4 mps 721 mmHg 82%
    06:00 +4°C° 0.1 mm 4 mps 721 mmHg 84%
    07:00 +4°C° 0 mm 3 mps 722 mmHg 88%
    08:00 +3°C° 0 mm 5 mps 722 mmHg 79%
    09:00 +3°C° 0 mm 6 mps 722 mmHg 70%
    10:00 +2°C° 0 mm 8 mps 723 mmHg 61%
    11:00 +3°C° 0.1 mm 7 mps 723 mmHg 60%
    12:00 +4°C° 0.1 mm 6 mps 723 mmHg 59%
    13:00 +4°C° 0.1 mm 6 mps 723 mmHg 57%
    14:00 +5°C° 0.1 mm 5 mps 722 mmHg 60%
    15:00 +3°C° 0.1 mm 5 mps 722 mmHg 62%
    16:00 +4°C° 0.1 mm 4 mps 722 mmHg 64%
    17:00 +3°C° 0.1 mm 4 mps 723 mmHg 67%
    18:00 +2°C° 0.1 mm 5 mps 724 mmHg 70%
    19:00 +1°C° 0.1 mm 5 mps 724 mmHg 73%
    20:00 +1°C° 0.1 mm 6 mps 724 mmHg 77%
    21:00 -1°C° 0.1 mm 6 mps 725 mmHg 81%
    22:00 -1°C° 0.1 mm 7 mps 725 mmHg 85%
    23:00 -1°C° 0.2 mm 7 mps 726 mmHg 86%

    Tomorrow, 27 February, Thursday

    Time Temperature Precipitation Wind Pressure Humidity
    00:00 -1°C° 0.2 mm 6 mps 726 mmHg 87%
    01:00 -1°C° 0.2 mm 6 mps 727 mmHg 88%
    02:00 -1°C° 0.1 mm 6 mps 727 mmHg 87%
    03:00 -2°C° 0.1 mm 7 mps 727 mmHg 85%
    04:00 -2°C° 0.1 mm 7 mps 727 mmHg 84%
    05:00 -2°C° 0.1 mm 7 mps 728 mmHg 84%
    06:00 -2°C° 0.1 mm 7 mps 729 mmHg 84%
    07:00 -2°C° 0.1 mm 8 mps 729 mmHg 85%
    08:00 -1°C° 0 mm 8 mps 729 mmHg 80%
    09:00 -1°C° 0 mm 8 mps 730 mmHg 75%
    10:00 0°C° 0 mm 8 mps 730 mmHg 70%
    11:00 +2°C° 0 mm 7 mps 729 mmHg 66%
    12:00 +3°C° 0 mm 6 mps 729 mmHg 62%
    13:00 +4°C° 0 mm 6 mps 729 mmHg 59%
    14:00 +5°C° 0 mm 4 mps 728 mmHg 57%
    15:00 +5°C° 0 mm 3 mps 727 mmHg 55%
    16:00 +6°C° 0 mm 2 mps 725 mmHg 53%
    17:00 +5°C° 0 mm 2 mps 725 mmHg 58%
    18:00 +4°C° 0 mm 2 mps 724 mmHg 62%
    19:00 +3°C° 0 mm 2 mps 723 mmHg 67%
    20:00 +3°C° 0 mm 2 mps 722 mmHg 69%
    21:00 +3°C° 0 mm 2 mps 721 mmHg 71%
    22:00 +3°C° 0 mm 2 mps 720 mmHg 74%
    23:00 +1°C° 0.1 mm 3 mps 720 mmHg 76%

    Day after tomorrow, 28 February, Friday

    Time Temperature Precipitation Wind Pressure Humidity
    00:00 0°C° 0.1 mm 4 mps 720 mmHg 78%
    01:00 0°C° 0.1 mm 5 mps 720 mmHg 80%
    02:00 -1°C° 0.3 mm 8 mps 721 mmHg 80%
    03:00 -2°C° 0.3 mm 11 mps 721 mmHg 80%
    04:00 -2°C° 0.3 mm 14 mps 722 mmHg 80%
    05:00 -2°C° 0.4 mm 13 mps 724 mmHg 80%
    06:00 -2°C° 0.4 mm 12 mps 725 mmHg 80%
    07:00 -2°C° 0.4 mm 10 mps 727 mmHg 80%
    08:00 -2°C° 0.3 mm 10 mps 729 mmHg 80%
    09:00 -1°C° 0.3 mm 9 mps 730 mmHg 80%
    10:00 -1°C° 0.3 mm 9 mps 732 mmHg 80%
    11:00 0°C° 0.2 mm 9 mps 733 mmHg 76%
    12:00 +1°C° 0.2 mm 9 mps 733 mmHg 72%
    13:00 +1°C° 0.2 mm 9 mps 734 mmHg 67%
    14:00 +1°C° 0.1 mm 8 mps 735 mmHg 66%
    15:00 +2°C° 0.1 mm 7 mps 735 mmHg 65%
    16:00 +3°C° 0.1 mm 6 mps 735 mmHg 63%
    17:00 +1°C° 0 mm 5 mps 735 mmHg 69%
    18:00 +1°C° 0 mm 3 mps 735 mmHg 76%
    19:00 +1°C° 0 mm 2 mps 736 mmHg 82%
    20:00 -1°C° 0 mm 2 mps 736 mmHg 82%
    21:00 -1°C° 0 mm 2 mps 736 mmHg 82%
    22:00 +1°C° 0 mm 1 mps 736 mmHg 82%
    23:00 +2°C° 0 mm 1 mps 736 mmHg 81%

    29 February, Saturday

    Time Temperature Precipitation Wind Pressure Humidity
    00:00 +2°C° 0 mm 1 mps 736 mmHg 80%
    01:00 +2°C° 0 mm 1 mps 735 mmHg 79%
    02:00 +2°C° 0.1 mm 1 mps 735 mmHg 81%
    03:00 +2°C° 0.1 mm 1 mps 734 mmHg 82%
    04:00 +2°C° 0.1 mm 1 mps 734 mmHg 83%
    05:00 +2°C° 0 mm 1 mps 733 mmHg 82%
    06:00 +2°C° 0 mm 1 mps 733 mmHg 81%
    07:00 +3°C° 0 mm 1 mps 733 mmHg 79%
    08:00 +4°C° 0 mm 1 mps 732 mmHg 76%
    09:00 +5°C° 0 mm 1 mps 731 mmHg 73%
    10:00 +7°C° 0 mm 1 mps 731 mmHg 71%
    11:00 +8°C° 0 mm 1 mps 730 mmHg 70%
    12:00 +10°C° 0 mm 1 mps 730 mmHg 69%
    13:00 +10°C° 0 mm 2 mps 729 mmHg 68%
    14:00 +10°C° 0 mm 2 mps 728 mmHg 69%
    15:00 +9°C° 0 mm 2 mps 727 mmHg 69%
    16:00 +9°C° 0 mm 2 mps 726 mmHg 70%
    17:00 +8°C° 0 mm 2 mps 726 mmHg 72%
    18:00 +6°C° 0 mm 2 mps 726 mmHg 75%
    19:00 +6°C° 0 mm 1 mps 725 mmHg 77%
    20:00 +5°C° 0 mm 1 mps 725 mmHg 79%
    21:00 +4°C° 0 mm 2 mps 725 mmHg 80%
    22:00 +3°C° 0 mm 2 mps 725 mmHg 82%
    23:00 +3°C° 0 mm 2 mps 725 mmHg 82%

    1 March, Sunday

    Time Temperature Precipitation Wind Pressure Humidity
    00:00 +3°C° 0 mm 2 mps 725 mmHg 81%
    01:00 +4°C° 0 mm 2 mps 725 mmHg 81%
    02:00 +4°C° 0 mm 2 mps 726 mmHg 81%
    03:00 +3°C° 0 mm 3 mps 726 mmHg 81%
    04:00 +4°C° 0 mm 3 mps 727 mmHg 81%
    05:00 +5°C° 0.4 mm 2 mps 727 mmHg 86%
    06:00 +4°C° 0.4 mm 2 mps 728 mmHg 91%
    07:00 +5°C° 0.4 mm 1 mps 728 mmHg 95%
    08:00 +6°C° 0.2 mm 1 mps 728 mmHg 93%
    09:00 +5°C° 0.2 mm 2 mps 728 mmHg 91%
    10:00 +6°C° 0.2 mm 2 mps 729 mmHg 88%
    11:00 +6°C° 0.2 mm 2 mps 728 mmHg 87%
    12:00 +7°C° 0.2 mm 2 mps 728 mmHg 85%
    13:00 +7°C° 0.2 mm 2 mps 728 mmHg 83%
    14:00 +7°C° 0.4 mm 2 mps 728 mmHg 84%
    15:00 +6°C° 0.4 mm 2 mps 728 mmHg 86%
    16:00 +6°C° 0.4 mm 2 mps 727 mmHg 87%
    17:00 +6°C° 0.3 mm 2 mps 728 mmHg 89%
    18:00 +6°C° 0.3 mm 1 mps 728 mmHg 91%
    19:00 +6°C° 0.3 mm 1 mps 729 mmHg 93%
    20:00 +5°C° 0 mm 1 mps 729 mmHg 92%
    21:00 +5°C° 0 mm 1 mps 729 mmHg 91%
    22:00 +5°C° 0 mm 1 mps 729 mmHg 90%
    23:00 +4°C° 0 mm 1 mps 729 mmHg 88%

    2 March, Monday

    Time Temperature Precipitation Wind Pressure Humidity
    00:00 +4°C° 0 mm 1 mps 729 mmHg 87%
    01:00 +3°C° 0 mm 1 mps 728 mmHg 86%
    02:00 +3°C° 0 mm 1 mps 728 mmHg 84%
    03:00 +3°C° 0 mm 1 mps 728 mmHg 82%
    04:00 +3°C° 0 mm 1 mps 728 mmHg 79%
    05:00 +3°C° 0 mm 1 mps 728 mmHg 79%
    06:00 +3°C° 0 mm 1 mps 729 mmHg 78%
    07:00 +4°C° 0 mm 1 mps 729 mmHg 77%
    08:00 +5°C° 0 mm 1 mps 729 mmHg 74%
    09:00 +6°C° 0 mm 1 mps 729 mmHg 71%
    10:00 +8°C° 0 mm 1 mps 730 mmHg 68%
    11:00 +9°C° 0 mm 1 mps 729 mmHg 65%
    12:00 +10°C° 0 mm 1 mps 729 mmHg 62%
    13:00 +11°C° 0 mm 1 mps 729 mmHg 58%
    14:00 +10°C° 0 mm 2 mps 728 mmHg 61%
    15:00 +10°C° 0 mm 2 mps 727 mmHg 63%
    16:00 +10°C° 0 mm 2 mps 727 mmHg 66%
    17:00 +8°C° 0 mm 2 mps 727 mmHg 72%
    18:00 +7°C° 0 mm 2 mps 726 mmHg 78%
    19:00 +5°C° 0 mm 2 mps 726 mmHg 84%
    20:00 +5°C° 0 mm 2 mps 726 mmHg 85%
    21:00 +5°C° 0 mm 2 mps 726 mmHg 87%
    22:00 +5°C° 0 mm 1 mps 726 mmHg 89%
    23:00 +5°C° 0 mm 1 mps 725 mmHg 89%
    Show more